Location: Boda
(47.1872°N, 9.5454°E)
Time: 07:29:01
(UTC+00:00)

Meteor 1-21 - Pass Details

Date: 14 May 2021
Orbit: 844 x 887 km, 81.2° (Epoch: 16 June)

Event Time Altitude Azimuth Distance (km) Brightness Sun altitude
Exits shadow 00:25:21 44° 167° (SSE) 1,210 4.6 -22.5°
Maximum altitude 00:27:13 71° 98° (E) 935 4.4 -22.4°
Drops below altitude 10° 00:32:59 10° 15° (NNE) 2,549 7.8 -22.1°
Sets 00:35:26 0° 14° (NNE) 3,487 8.9 -21.9°
